Regional Weather Roundup
Issued by NWS State College, PA

Home | Current Version | Previous Version | Text Only | Print | Product List | Glossary Off
Versions: 1 2 3 4 5 6 7 8 9 10 11 12 13 14 15 16 17 18 19 20 21 22 23 24 25 26 27 28 29 30 31 32 33 34 35 36 37 38 39 40 41 42 43 44 45 46 47 48 49 50

000
ASUS41 KCTP 231803
RWRCTP

REGIONAL WEATHER ROUNDUP
NATIONAL WEATHER SERVICE STATE COLLEGE PA
100 PM EST THU FEB 23 2017

Note: "fair" indicates few or no clouds below 12,000 feet with no
significant weather and/or obstructions to visibility.

* = STATION THAT DOES NOT REPORT PRECIPITATION /E.G. RAIN...SNOW...ETC/
    THUNDER OR FOG.

PAZ002>004-007>009-013>016-020>023-029>032-231900-
WESTERN PENNSYLVANIA

CITY           SKY/WX    TMP DP  RH WIND       PRES   REMARKS
ERIE           PTSUNNY   58  51  78 W17G26    29.74R
MEADVILLE      CLOUDY    61  52  72 SW10G18   29.75F
FRANKLIN*      CLOUDY    61  54  77 SW14      29.78F
NEW CASTLE     CLOUDY    63  55  75 SW9       29.79F
BEAVER COUNTY  CLOUDY    63  54  72 SW10      29.79F
BUTLER*        CLOUDY    63  54  72 SW12G17   29.81F
PITTSBURGH INT CLOUDY    64  55  72 SW8       29.80F
PITTSBURGH     CLOUDY    67  52  58 SW14      29.78F
INDIANA*       PTSUNNY   64  55  72 W12       29.82F
LATROBE        PTSUNNY   66  55  68 SW12G21   29.81F
WASHINGTON CO* CLOUDY    68  54  60 SW14G21   29.82F
$$

PAZ004>006-010>012-017>019-024>028-033>037-041-042-045-046-049>053-231900-
CENTRAL PENNSYLVANIA

CITY           SKY/WX    TMP DP  RH WIND       PRES   REMARKS
BRADFORD       CLOUDY    57  53  86 SW9G18    29.75F
DUBOIS         CLOUDY    58  52  80 SW9       29.79F
CLEARFIELD       N/A    N/A N/A N/A MISG      29.79F
JOHNSTOWN      CLOUDY    62  52  69 SW14G20   29.81F
ALTOONA        CLOUDY    68  54  60 W16G26    29.81F
STATE COLLEGE  CLOUDY    66  54  63 SW8       29.79F
WILLIAMSPORT   CLOUDY    59  43  55 W5        29.80F
SELINSGROVE    PTSUNNY   66  52  60 SE10      29.79F
FT INDIANTOWN  PTSUNNY   55  55 100 CALM      29.83F
CAPITAL CITY   MOSUNNY   68  51  54 CALM      29.82F
HARRISBURG     MOSUNNY   66  53  63 SE7       29.81F
YORK           MOSUNNY   72  54  53 SW14      29.81F
$$

PAZ038>040-043-044-047-048-054-055-060>062-067>071-231900-
EASTERN PENNSYLVANIA

CITY           SKY/WX    TMP DP  RH WIND       PRES   REMARKS
SCRANTON       PTSUNNY   67  51  56 W12       29.78F
MOUNT POCONO   SUNNY     61  50  67 SW10      29.80F
ALLENTOWN      MOSUNNY   61  50  67 W3        29.84F
QUAKERTOWN*    CLEAR     63  52  67 SW8       29.85F
READING        PTSUNNY   63  53  70 W5        29.83F
LANCASTER      SUNNY     65  54  67 NW5       29.83F
COATESVILLE    CLEAR     68  54  60 SW8       29.85F
POTTSTOWN      SUNNY     66  53  63 SE5       29.84F
BLUE BELL      SUNNY     64  54  68 S3        29.84F
DOYLESTOWN     SUNNY     62  53  72 SW5       29.84F
WILLOW GROVE   NOT AVBL
NORTH PHILA    SUNNY     63  54  72 CALM      29.87F
PHILADELPHIA   MOSUNNY   65  53  65 W7        29.85F
$$




USA.gov is the U.S. government's official web portal to all federal, state and local government web resources and services.